TimeCDT,TemperatureF,Dew PointF,Humidity,Sea Level PressureIn,VisibilityMPH,Wind Direction,Wind SpeedMPH,Gust SpeedMPH,PrecipitationIn,Events,Conditions,WindDirDegrees,DateUTC
12:15 AM,50.9,50.9,100,30.03,10.0,Calm,Calm,-,0.01,,Overcast,0,2013-10-17 05:15:00
12:35 AM,50.9,50.9,100,30.02,10.0,West,3.5,-,0.01,,Overcast,280,2013-10-17 05:35:00
12:55 AM,50.9,50.9,100,30.02,10.0,Calm,Calm,-,0.01,,Overcast,0,2013-10-17 05:55:00
1:15 AM,50.9,50.9,100,30.03,10.0,West,3.5,-,N/A,,Overcast,270,2013-10-17 06:15:00
1:35 AM,50.9,50.9,100,30.03,10.0,West,4.6,-,N/A,,Overcast,270,2013-10-17 06:35:00
1:55 AM,50.9,50.9,100,30.03,10.0,West,4.6,-,N/A,,Overcast,280,2013-10-17 06:55:00
2:15 AM,50.9,50.9,100,30.03,10.0,West,3.5,-,N/A,,Overcast,270,2013-10-17 07:15:00
2:35 AM,50.9,50.9,100,30.03,10.0,West,4.6,-,N/A,,Overcast,270,2013-10-17 07:35:00
2:55 AM,50.9,50.9,100,30.02,10.0,West,3.5,-,N/A,,Overcast,270,2013-10-17 07:55:00
3:15 AM,50.9,50.9,100,30.02,10.0,Calm,Calm,-,N/A,,Overcast,0,2013-10-17 08:15:00
3:35 AM,50.9,50.9,100,30.02,10.0,West,3.5,-,N/A,,Overcast,270,2013-10-17 08:35:00
3:55 AM,50.9,50.9,100,30.02,10.0,Calm,Calm,-,N/A,,Overcast,0,2013-10-17 08:55:00
4:15 AM,50.9,50.9,100,30.02,10.0,SW,3.5,-,N/A,,Overcast,230,2013-10-17 09:15:00
4:35 AM,49.3,49.5,100,30.02,10.0,SW,4.6,-,N/A,,Mostly Cloudy,230,2013-10-17 09:35:00
4:55 AM,46.6,46.8,100,30.02,10.0,SW,4.6,-,N/A,,Scattered Clouds,230,2013-10-17 09:55:00
5:15 AM,45.5,-9999,N/A,30.02,10.0,SW,3.5,-,N/A,,Clear,230,2013-10-17 10:15:00
5:35 AM,44.4,-9999,N/A,30.02,7.0,Calm,Calm,-,N/A,,Clear,0,2013-10-17 10:35:00
5:55 AM,44.1,-9999,N/A,30.02,7.0,SW,4.6,-,N/A,,Clear,230,2013-10-17 10:55:00
6:15 AM,43.7,-9999,N/A,30.02,7.0,WSW,4.6,-,N/A,,Clear,250,2013-10-17 11:15:00
6:35 AM,43.7,-9999,N/A,30.02,7.0,WSW,3.5,-,N/A,,Clear,240,2013-10-17 11:35:00
6:55 AM,43.3,-9999,N/A,30.02,7.0,West,3.5,-,N/A,,Clear,260,2013-10-17 11:55:00
7:15 AM,43.2,-9999,N/A,30.02,7.0,WSW,3.5,-,N/A,,Clear,240,2013-10-17 12:15:00
7:35 AM,42.4,-9999,N/A,30.02,5.0,NNW,4.6,-,N/A,,Clear,340,2013-10-17 12:35:00
7:55 AM,42.3,-9999,N/A,30.02,5.0,SW,4.6,-,N/A,,Clear,220,2013-10-17 12:55:00
8:15 AM,43.2,-9999,N/A,30.03,5.0,SW,4.6,-,N/A,,Clear,230,2013-10-17 13:15:00
8:35 AM,44.1,-9999,N/A,30.03,7.0,WSW,3.5,-,N/A,,Clear,240,2013-10-17 13:35:00
8:55 AM,45.0,-9999,N/A,30.05,7.0,WSW,4.6,-,N/A,,Clear,240,2013-10-17 13:55:00
9:15 AM,47.5,-9999,N/A,30.04,10.0,WSW,4.6,-,N/A,,Clear,240,2013-10-17 14:15:00
9:35 AM,50.2,49.5,97,30.04,10.0,WSW,6.9,-,N/A,,Clear,240,2013-10-17 14:35:00
9:55 AM,50.9,47.7,89,30.05,10.0,West,6.9,-,N/A,,Clear,260,2013-10-17 14:55:00
10:15 AM,52.3,46.6,81,30.05,10.0,West,8.1,-,N/A,,Clear,260,2013-10-17 15:15:00
10:35 AM,54.7,46.4,74,30.05,10.0,WSW,5.8,-,N/A,,Clear,240,2013-10-17 15:35:00
10:55 AM,55.8,44.8,67,30.05,10.0,West,6.9,-,N/A,,Clear,260,2013-10-17 15:55:00
11:15 AM,56.1,43.7,63,30.05,10.0,WSW,8.1,-,N/A,,Clear,250,2013-10-17 16:15:00
11:35 AM,57.9,43.9,60,30.04,10.0,WSW,6.9,16.1,N/A,,Clear,250,2013-10-17 16:35:00
11:55 AM,58.3,42.8,56,30.04,10.0,WSW,9.2,-,N/A,,Clear,250,2013-10-17 16:55:00
12:15 PM,58.5,42.4,55,30.04,10.0,WSW,9.2,-,N/A,,Clear,240,2013-10-17 17:15:00
12:35 PM,59.2,42.4,54,30.03,10.0,West,9.2,-,N/A,,Clear,260,2013-10-17 17:35:00
12:55 PM,60.8,42.8,52,30.02,10.0,West,5.8,17.3,N/A,,Clear,260,2013-10-17 17:55:00
1:15 PM,60.8,42.1,50,30.01,10.0,WSW,11.5,-,N/A,,Clear,250,2013-10-17 18:15:00
1:35 PM,60.8,41.7,49,30.00,10.0,SW,6.9,-,N/A,,Clear,230,2013-10-17 18:35:00
1:55 PM,61.9,42.4,49,29.99,10.0,WSW,9.2,-,N/A,,Clear,250,2013-10-17 18:55:00
2:15 PM,62.2,41.5,47,29.99,10.0,WSW,10.4,-,N/A,,Clear,240,2013-10-17 19:15:00
2:35 PM,62.8,41.5,46,29.98,10.0,WSW,8.1,-,N/A,,Clear,250,2013-10-17 19:35:00
2:55 PM,63.1,42.6,47,29.97,10.0,SW,10.4,-,N/A,,Clear,230,2013-10-17 19:55:00
3:15 PM,63.5,42.3,46,29.97,10.0,WSW,10.4,-,N/A,,Clear,250,2013-10-17 20:15:00
3:35 PM,63.5,41.4,44,29.97,10.0,West,6.9,-,N/A,,Clear,260,2013-10-17 20:35:00
3:55 PM,63.5,41.5,45,29.97,10.0,West,6.9,-,N/A,,Clear,270,2013-10-17 20:55:00
4:15 PM,63.7,41.5,44,29.96,10.0,WSW,10.4,-,N/A,,Clear,240,2013-10-17 21:15:00
4:35 PM,63.5,41.4,44,29.96,10.0,WSW,6.9,-,N/A,,Clear,240,2013-10-17 21:35:00
4:55 PM,63.7,41.9,45,29.95,10.0,West,8.1,-,N/A,,Clear,260,2013-10-17 21:55:00
5:15 PM,63.5,42.4,46,29.95,10.0,WSW,5.8,-,N/A,,Clear,250,2013-10-17 22:15:00
5:35 PM,63.3,43.0,47,29.96,10.0,SW,6.9,-,N/A,,Clear,230,2013-10-17 22:35:00
5:55 PM,62.1,43.9,51,29.96,10.0,SW,5.8,-,N/A,,Clear,230,2013-10-17 22:55:00
6:15 PM,61.0,45.3,56,29.96,10.0,SW,5.8,-,N/A,,Clear,230,2013-10-17 23:15:00
6:35 PM,59.0,45.9,62,29.97,10.0,SW,5.8,-,N/A,,Clear,220,2013-10-17 23:35:00
6:55 PM,56.5,45.9,68,29.97,10.0,SSW,4.6,-,N/A,,Clear,200,2013-10-17 23:55:00
7:15 PM,55.8,45.5,68,29.97,10.0,SSW,4.6,-,N/A,,Clear,200,2013-10-18 00:15:00
7:35 PM,55.8,46.4,71,29.98,10.0,SSW,4.6,-,N/A,,Clear,200,2013-10-18 00:35:00
7:55 PM,55.8,47.3,73,29.98,10.0,SSW,4.6,-,N/A,,Clear,210,2013-10-18 00:55:00
8:15 PM,53.6,47.1,79,29.98,10.0,SSW,4.6,-,N/A,,Clear,210,2013-10-18 01:15:00
8:35 PM,53.1,46.9,80,29.99,10.0,SSW,5.8,-,N/A,,Clear,210,2013-10-18 01:35:00
8:55 PM,52.0,46.0,80,29.99,10.0,SSW,4.6,-,N/A,,Clear,210,2013-10-18 01:55:00
9:15 PM,51.1,45.9,82,29.99,10.0,SSW,4.6,-,N/A,,Clear,210,2013-10-18 02:15:00
9:35 PM,51.3,46.6,84,29.99,10.0,SSW,4.6,-,N/A,,Clear,200,2013-10-18 02:35:00
9:55 PM,51.8,45.5,79,29.99,10.0,SSW,3.5,-,N/A,,Clear,200,2013-10-18 02:55:00
10:15 PM,50.9,45.9,83,30.00,10.0,SSW,4.6,-,N/A,,Clear,210,2013-10-18 03:15:00
10:35 PM,50.9,46.2,84,30.00,10.0,SSW,3.5,-,N/A,,Clear,200,2013-10-18 03:35:00
10:55 PM,49.8,48.2,94,30.00,10.0,SSW,3.5,-,N/A,,Clear,200,2013-10-18 03:55:00
11:15 PM,49.1,49.3,100,30.01,10.0,Calm,Calm,-,N/A,,Clear,0,2013-10-18 04:15:00
11:35 PM,47.8,48.0,100,30.01,10.0,Calm,Calm,-,N/A,,Clear,0,2013-10-18 04:35:00
11:55 PM,47.7,47.8,100,30.01,10.0,Calm,Calm,-,N/A,,Clear,0,2013-10-18 04:55:00